[[{"header":{"parameterUnit":"m.s-1","parameterCategory":1,"la1":30.2991,"la2":30.254,"lo1":-89.0895,"lo2":-89.0444,"dy":0.0017,"dx":0.0017,"nx":28,"ny":28,"refTime":"2023-08-18T21:00:00:Z","depth":0,"parameterNumber":2,"parameterNumberName":"U-component_of_WINDS"},"data":[0,0,0,0,0,0,0,0,0,0,0,0,0,0,0,0,0,0,0,0,0,0,0,0,0,0,0,0,0,0,0,0,0,0,0,0,0,0,0,0,0,0,0,0,0,0,0,0,0,0,0,0,0,0,0,0,0,0,2.2181,2.2182,0,2.2216,2.2216,2.2216,2.2188,2.2187,2.2186,2.2185,2.222,2.2222,2.2224,0,0,0,0,0,0,0,0,0,0,0,0,0,2.2093,2.2095,2.2181,2.2182,2.2182,2.2216,2.2216,2.2217,2.2189,2.2187,2.2186,2.2184,2.222,2.2222,2.2224,0,0,0,0,0,0,0,0,0,0,0,0,0,2.213,2.2095,2.2181,2.2172,2.2172,2.2215,2.2216,2.2217,2.2189,2.2187,2.2185,2.2184,2.2219,2.2222,2.2225,2.2279,0,0,2.2234,2.2235,0,0,0,0,0,0,0,0,2.2128,2.2133,2.2173,2.2173,2.2172,2.2196,2.2198,2.2238,2.2189,2.2182,2.2185,2.2183,2.2214,2.2217,2.2227,2.2281,2.2282,2.2234,2.2236,2.2238,2.2238,0,0,0,0,0,0,0,2.2125,2.2132,2.2195,2.2174,2.2173,2.2167,2.217,2.2205,2.2207,2.2183,2.2181,2.2185,2.2213,2.2224,2.2228,2.2283,2.2234,2.2237,2.2239,2.224,2.2385,2.2387,0,0,0,0,0,0,2.2124,2.213,2.2194,2.2196,2.2145,2.217,2.2174,2.219,2.2207,2.2208,2.2187,2.2184,2.222,2.2224,2.2229,2.2295,2.2238,2.224,2.2242,2.2383,2.2386,2.2388,0,0,0,0,0,0,2.2122,2.2129,2.2192,2.2162,2.217,2.2174,2.2192,2.2192,2.2203,2.221,2.221,2.2198,2.2219,2.2225,2.2267,2.2296,2.2242,2.2245,2.2381,2.2384,2.2387,2.2427,0,0,0,0,0,0,2.2119,2.2129,2.2149,2.2163,2.2171,2.223,2.2194,2.2194,2.2208,2.2205,2.2221,2.2221,2.2218,2.2263,2.227,2.2299,2.2247,2.2378,2.2382,2.2386,2.2423,2.2431,2.2437,0,0,0,0,0,2.2116,2.2158,2.215,2.2158,2.2196,2.2231,2.2236,2.2231,2.2211,2.2231,2.2237,2.2221,2.2292,2.2268,2.2276,2.2306,2.2376,2.2381,2.2386,2.242,2.2429,2.2437,0,0,0,0,0,0,2.2147,2.216,2.2151,2.2199,2.2214,2.2226,2.2252,2.2241,2.2263,2.2258,2.2252,2.2255,2.2301,2.2308,2.228,2.2361,2.2331,2.2337,2.2354,2.2363,2.237,2.2367,2.2249,0,0,0,0,0,2.2159,2.2186,2.2196,2.2237,2.2246,2.2248,2.2263,2.2258,2.2274,2.228,2.2288,2.2304,2.233,2.2347,2.2371,2.2424,2.2428,2.2449,2.2457,2.2462,2.2468,2.2498,2.2508,2.2403,2.2403,2.2403,0,0,2.2185,2.2195,2.2212,2.2244,2.2255,2.2284,2.2253,2.2284,2.2306,2.2284,2.2325,2.2332,2.235,2.2399,2.242,2.2406,2.2498,2.2468,2.2473,2.2475,2.2504,2.2514,2.2523,2.2406,2.2405,2.2405,0,0,2.2246,2.2256,2.2293,2.2305,2.2324,2.2325,2.2334,2.2349,2.2353,2.2394,2.2379,2.2405,2.245,2.2464,2.2476,2.2547,2.2534,2.2555,2.2593,2.2622,2.2631,2.2638,2.2664,2.2673,2.256,2.2561,2.2561,0,2.2275,2.2317,2.2312,2.2345,2.236,2.2344,2.2381,2.2394,2.2419,2.243,2.2414,2.2471,2.2482,2.2534,2.2551,2.2562,2.2573,2.2552,2.263,2.2637,2.2644,2.2668,2.2678,2.2563,2.2563,2.2562,2.2562,0,2.2353,2.2383,2.241,2.2436,2.2454,2.2489,2.2491,2.251,2.2504,2.2508,2.2552,2.2564,2.2592,2.2604,2.2599,2.2657,2.2647,2.2631,2.26,2.2656,2.2679,2.2689,2.2567,2.2566,2.2565,2.2564,0,0,2.2432,2.2457,2.2467,2.2479,2.25,2.2523,2.2558,2.2586,2.2603,2.2622,2.2652,2.2691,2.2677,2.2692,2.2688,2.2714,2.277,2.2694,2.2695,2.2708,2.2837,2.2849,2.286,2.2763,2.2764,2.2766,2.2835,0,2.2494,2.2555,2.2554,2.2611,2.2639,2.2626,2.2657,2.2673,2.2678,2.2704,2.271,2.2738,2.2717,2.2726,2.2751,2.2758,2.2796,2.2753,2.2791,2.2792,2.2786,2.2871,2.2884,2.2948,2.2844,2.2846,2.2847,0,2.2575,2.2597,2.2658,2.2676,2.2688,2.2716,2.2742,2.2766,2.2786,2.2788,2.2806,2.2799,2.2836,2.2806,2.2858,2.2829,2.2845,2.2851,2.2853,2.2856,2.2822,2.2876,2.2969,2.2978,2.2861,2.286,2.2859,0,2.2627,2.2673,2.2715,2.2726,2.2748,2.2769,2.2779,2.2797,2.2814,2.2837,2.2849,2.2876,2.2891,2.2913,2.2914,2.2892,2.2967,2.2937,2.297,2.297,2.2985,2.2984,2.3082,2.2996,2.2996,2.2996,2.2996,0,2.2696,2.2734,2.2739,2.2765,2.2807,2.2806,2.2848,2.2857,2.2873,2.2901,2.2892,2.2918,2.2918,2.2946,2.2948,2.2991,2.2998,2.3001,2.3001,2.3002,2.3001,2.3011,2.3006,2.2999,2.2998,2.2998,2.2997,0,2.2761,2.2766,2.2811,2.283,2.2836,2.2866,2.2882,2.2908,2.2913,2.2949,2.2958,2.2966,2.2999,2.3003,2.304,2.3041,2.3094,2.3089,2.3087,2.3086,2.312,2.3116,2.3226,2.3241,2.3146,2.3147,2.3148,0,2.2805,2.2833,2.2856,2.2874,2.2886,2.2916,2.2934,2.2935,2.2954,2.298,2.3003,2.3035,2.306,2.3113,2.3123,2.3152,2.3148,2.3184,2.3152,2.3152,2.3148,2.3147,2.315,2.319,2.3191,2.3192,2.3193,0,2.2882,2.2884,2.291,2.2939,2.2961,2.2984,2.3005,2.3021,2.3024,2.3047,2.308,2.31,2.314,2.3172,2.3201,2.3213,2.3204,2.3203,2.3212,2.3213,2.3211,2.3213,2.3104,2.32,2.3199,2.3199,2.3198,2.3198,2.2937,2.2963,2.2984,2.3014,2.3031,2.3051,2.3077,2.3086,2.3114,2.3146,2.3146,2.3183,2.3204,2.3243,2.3257,2.3286,2.3274,2.3288,2.3291,2.3294,2.3298,2.3207,2.3292,2.3291,2.3291,2.3291,2.3291,0,2.3015,2.3028,2.3056,2.3087,2.3112,2.3102,2.3126,2.3147,2.318,2.32,2.3226,2.3266,2.3298,2.3311,2.3343,2.3364,2.3361,2.3372,2.337,2.3373,2.3306,2.3295,2.3374,2.3374,2.3374,2.3374,2.3374,2.3374,2.3057,2.3101,2.3106,2.3158,2.3171,2.3207,2.3222,2.3241,2.3258,2.3303,2.3329,2.3338,2.3357,2.339,2.3419,2.3422,2.3434,2.3448,2.3449,2.3386,2.3378,2.337,2.3359,2.345,2.345,2.3514,2.3514,2.3515]},{"header":{"parameterUnit":"m.s-1","parameterCategory":1,"la1":30.2991,"la2":30.254,"lo1":-89.0895,"lo2":-89.0444,"dy":0.0017,"dx":0.0017,"nx":28,"ny":28,"refTime":"2023-08-18T21:00:00:Z","depth":0,"parameterNumber":3,"parameterNumberName":"V-component_of_WINDS"},"data":[0,0,0,0,0,0,0,0,0,0,0,0,0,0,0,0,0,0,0,0,0,0,0,0,0,0,0,0,0,0,0,0,0,0,0,0,0,0,0,0,0,0,0,0,0,0,0,0,0,0,0,0,0,0,0,0,0,0,-0.2583,-0.2584,0,-0.2625,-0.2626,-0.2626,-0.2667,-0.2668,-0.2669,-0.2669,-0.2711,-0.2712,-0.2712,0,0,0,0,0,0,0,0,0,0,0,0,0,-0.2539,-0.254,-0.2583,-0.2584,-0.2584,-0.2625,-0.2626,-0.2626,-0.2667,-0.2668,-0.2669,-0.2669,-0.2711,-0.2711,-0.2712,0,0,0,0,0,0,0,0,0,0,0,0,0,-0.2567,-0.254,-0.2583,-0.261,-0.2613,-0.2625,-0.2626,-0.2626,-0.2667,-0.2668,-0.2669,-0.267,-0.2711,-0.2711,-0.2712,-0.2701,0,0,-0.2715,-0.2715,0,0,0,0,0,0,0,0,-0.2566,-0.2569,-0.2605,-0.2608,-0.2611,-0.2642,-0.2626,-0.2652,-0.2667,-0.2646,-0.2669,-0.267,-0.2687,-0.269,-0.2696,-0.2703,-0.2705,-0.2715,-0.2716,-0.2716,-0.2716,0,0,0,0,0,0,0,-0.2564,-0.2567,-0.26,-0.2606,-0.2609,-0.262,-0.2625,-0.2631,-0.2662,-0.2648,-0.2651,-0.2656,-0.2689,-0.2695,-0.2697,-0.2706,-0.2715,-0.2716,-0.2716,-0.2717,-0.2709,-0.2708,0,0,0,0,0,0,-0.2558,-0.2565,-0.2599,-0.2601,-0.259,-0.262,-0.2625,-0.2631,-0.2662,-0.2667,-0.2655,-0.2658,-0.2693,-0.2696,-0.2699,-0.269,-0.2716,-0.2717,-0.2717,-0.2709,-0.2708,-0.2708,0,0,0,0,0,0,-0.2557,-0.256,-0.2597,-0.2584,-0.259,-0.262,-0.2626,-0.2632,-0.2638,-0.2667,-0.2673,-0.2656,-0.2694,-0.2698,-0.2701,-0.2692,-0.2717,-0.2718,-0.271,-0.2709,-0.2708,-0.2671,0,0,0,0,0,0,-0.2555,-0.256,-0.2556,-0.2584,-0.259,-0.2598,-0.2625,-0.2632,-0.264,-0.2643,-0.2669,-0.2674,-0.2695,-0.27,-0.2702,-0.2694,-0.2719,-0.2711,-0.271,-0.2708,-0.2673,-0.2668,-0.2664,0,0,0,0,0,-0.2553,-0.2543,-0.2555,-0.2559,-0.2586,-0.2597,-0.2601,-0.2625,-0.2638,-0.2635,-0.2654,-0.2673,-0.2692,-0.27,-0.2703,-0.2694,-0.2712,-0.271,-0.2708,-0.2675,-0.2669,-0.2665,0,0,0,0,0,0,-0.2512,-0.2547,-0.2561,-0.2559,-0.2575,-0.2604,-0.2601,-0.2619,-0.2631,-0.2634,-0.2663,-0.2669,-0.2669,-0.2682,-0.2689,-0.2687,-0.2705,-0.2704,-0.2678,-0.2673,-0.2669,-0.2666,-0.272,0,0,0,0,0,-0.2503,-0.2509,-0.2539,-0.2535,-0.2542,-0.257,-0.2576,-0.2594,-0.2611,-0.2618,-0.2637,-0.2653,-0.2663,-0.2669,-0.2679,-0.2675,-0.2682,-0.2671,-0.2667,-0.2663,-0.2662,-0.2662,-0.2658,-0.2702,-0.2702,-0.2702,0,0,-0.2484,-0.2504,-0.2506,-0.2527,-0.2542,-0.2548,-0.2575,-0.258,-0.2586,-0.2618,-0.2623,-0.2638,-0.2658,-0.2658,-0.2659,-0.2669,-0.2651,-0.2661,-0.2658,-0.2659,-0.266,-0.2656,-0.2652,-0.2701,-0.2701,-0.2701,0,0,-0.2452,-0.2467,-0.2466,-0.248,-0.2502,-0.2521,-0.2521,-0.2547,-0.2559,-0.2564,-0.2589,-0.2596,-0.2612,-0.2626,-0.2635,-0.261,-0.2629,-0.2613,-0.2591,-0.2591,-0.2588,-0.2585,-0.2577,-0.2574,-0.2611,-0.2611,-0.2611,0,-0.2426,-0.2436,-0.2463,-0.2468,-0.2477,-0.2507,-0.2507,-0.2519,-0.2543,-0.2549,-0.256,-0.2582,-0.2597,-0.2601,-0.2596,-0.2601,-0.2603,-0.261,-0.2586,-0.2583,-0.2581,-0.2574,-0.2571,-0.2609,-0.2609,-0.261,-0.261,0,-0.2403,-0.241,-0.2407,-0.243,-0.2439,-0.244,-0.2468,-0.2474,-0.2491,-0.2508,-0.2514,-0.2534,-0.255,-0.2552,-0.2569,-0.256,-0.2565,-0.258,-0.26,-0.2575,-0.2569,-0.2566,-0.2606,-0.2607,-0.2608,-0.2608,0,0,-0.2347,-0.2386,-0.2384,-0.2396,-0.2423,-0.2429,-0.2432,-0.2449,-0.2453,-0.2469,-0.2473,-0.2487,-0.2502,-0.2512,-0.253,-0.253,-0.2511,-0.2546,-0.2547,-0.254,-0.2504,-0.2493,-0.249,-0.2524,-0.2523,-0.2523,-0.2503,0,-0.2321,-0.2329,-0.2354,-0.2355,-0.2363,-0.2393,-0.2396,-0.2413,-0.243,-0.2439,-0.2458,-0.2468,-0.2486,-0.2493,-0.2494,-0.2513,-0.2505,-0.2515,-0.2529,-0.2529,-0.2524,-0.2487,-0.2475,-0.2455,-0.2501,-0.25,-0.25,0,-0.2291,-0.2306,-0.2308,-0.2337,-0.2341,-0.2343,-0.2361,-0.2369,-0.2389,-0.2402,-0.2414,-0.2435,-0.2441,-0.2458,-0.2468,-0.2474,-0.2481,-0.2492,-0.2492,-0.2495,-0.2514,-0.2489,-0.2449,-0.2446,-0.2497,-0.2497,-0.2497,0,-0.2252,-0.2272,-0.2276,-0.2285,-0.2318,-0.2319,-0.2332,-0.2354,-0.2362,-0.2378,-0.2384,-0.2399,-0.2408,-0.242,-0.2445,-0.2455,-0.2452,-0.2471,-0.2463,-0.2463,-0.2462,-0.2461,-0.2423,-0.2464,-0.2464,-0.2465,-0.2465,0,-0.2221,-0.2221,-0.2259,-0.2262,-0.2264,-0.2292,-0.2293,-0.231,-0.2328,-0.2335,-0.2362,-0.2367,-0.2399,-0.2409,-0.2428,-0.2434,-0.2437,-0.2448,-0.2454,-0.2446,-0.2445,-0.2452,-0.2454,-0.2464,-0.2464,-0.2464,-0.2464,0,-0.2176,-0.2202,-0.2209,-0.2239,-0.2247,-0.2247,-0.2274,-0.2278,-0.2297,-0.2305,-0.2309,-0.2338,-0.2351,-0.2377,-0.2397,-0.241,-0.2412,-0.242,-0.2405,-0.2409,-0.24,-0.2401,-0.2364,-0.2362,-0.2404,-0.2404,-0.2403,0,-0.2155,-0.2157,-0.2188,-0.2195,-0.2207,-0.2218,-0.2227,-0.2256,-0.2264,-0.2289,-0.229,-0.2305,-0.2319,-0.2338,-0.2362,-0.2378,-0.2387,-0.2374,-0.239,-0.2383,-0.2389,-0.2389,-0.239,-0.237,-0.237,-0.2369,-0.2369,0,-0.2116,-0.2129,-0.2141,-0.2159,-0.217,-0.2184,-0.2201,-0.2205,-0.2237,-0.2246,-0.226,-0.227,-0.2291,-0.2307,-0.2326,-0.234,-0.236,-0.2363,-0.2363,-0.2356,-0.2348,-0.2353,-0.2396,-0.2364,-0.2365,-0.2365,-0.2365,-0.2365,-0.2084,-0.2087,-0.211,-0.2123,-0.2139,-0.2154,-0.216,-0.218,-0.2192,-0.2212,-0.2228,-0.2241,-0.2262,-0.2291,-0.2304,-0.2315,-0.2324,-0.2323,-0.2323,-0.2322,-0.232,-0.2345,-0.2318,-0.2319,-0.2319,-0.2319,-0.2319,0,-0.2047,-0.2063,-0.2075,-0.2098,-0.2109,-0.2127,-0.2146,-0.2154,-0.2166,-0.2184,-0.2198,-0.2214,-0.223,-0.2255,-0.2272,-0.2276,-0.2286,-0.228,-0.228,-0.2284,-0.231,-0.2309,-0.2272,-0.2272,-0.2272,-0.2272,-0.2272,-0.2272,-0.2029,-0.2036,-0.2051,-0.2066,-0.2083,-0.2096,-0.2106,-0.212,-0.2136,-0.2153,-0.2166,-0.2183,-0.2204,-0.2224,-0.2239,-0.2246,-0.2252,-0.2243,-0.2253,-0.2277,-0.2282,-0.2286,-0.2286,-0.2244,-0.2244,-0.2226,-0.2226,-0.2226]}]]